Theta_e
318 311 309 306 296 292 287 290 292 294 294 300 303 301 300 302 299 293 314 327 337 343 347 348 350 351 353 352 352 351 349 349 348 346 344 342 341 340 339 337 335 335 336 338 339 340 340 342 342
315 312 307 298 290 285 287 290 294 295 301 302 301 300 303 302 310 314 317 337 344 346 347 347 347 351 351 351 352 351 350 349 348 345 342 342 340 339 337 335 334 334 334 336 337 338 338 339 340
311 308 301 292 287 286 288 291 292 297 301 296 300 304 304 306 309 312 320 340 343 343 345 345 347 351 351 351 351 350 350 348 347 345 342 341 339 338 335 333 332 332 332 334 335 337 338 337 335
306 303 297 290 287 288 291 294 295 296 295 300 302 302 308 311 313 316 324 340 340 343 345 343 347 351 351 350 350 350 349 348 347 345 342 340 338 336 334 331 329 329 330 331 333 335 335 332 334
300 296 291 287 289 292 290 294 295 295 295 296 298 298 303 310 311 320 329 340 337 340 343 343 345 348 349 349 349 349 349 348 346 344 342 339 337 334 332 330 327 326 327 328 328 329 329 328 331
297 293 288 285 286 290 293 294 295 293 295 297 298 300 305 304 308 319 328 333 336 339 343 343 338 340 344 347 347 347 347 347 346 344 341 339 337 334 332 329 325 323 323 322 322 324 325 324 324
293 289 286 286 287 290 293 295 294 294 294 293 300 297 299 303 308 318 321 323 326 334 342 343 342 339 337 340 341 343 344 344 344 344 342 339 337 334 332 331 325 323 321 321 321 321 321 320 320
293 291 285 287 288 290 295 294 294 295 293 297 297 294 299 303 317 313 311 311 311 314 319 332 340 340 338 338 335 336 339 340 340 340 336 333 333 332 331 329 329 327 326 323 321 319 319 319 317
294 288 285 287 289 292 294 293 294 294 296 294 296 296 297 303 312 310 309 308 308 310 312 314 320 327 333 339 335 332 333 335 335 333 329 327 329 326 325 327 329 329 327 325 323 321 319 316 316
292 286 289 291 290 292 294 293 295 294 293 292 294 296 299 302 309 309 308 307 304 308 310 310 313 315 320 334 338 336 334 336 336 333 330 329 328 327 326 322 324 324 325 324 323 320 316 310 304
290 287 291 291 294 295 294 293 294 293 291 294 295 297 298 300 305 305 303 303 303 304 308 311 311 313 315 321 335 332 335 334 333 330 329 328 325 325 323 321 320 314 314 313 313 311 309 307 306
291 293 292 295 295 295 294 295 293 293 295 296 296 297 297 299 301 300 300 301 303 304 305 308 310 311 312 321 329 332 334 335 332 330 329 326 323 322 321 319 318 316 315 311 310 309 309 308 308
290 292 294 296 295 294 296 294 294 294 293 294 296 297 296 297 297 298 299 301 302 302 302 306 308 311 313 325 323 323 323 326 329 330 328 327 323 321 319 315 312 312 312 310 308 308 307 305 303
293 294 294 295 295 295 294 292 294 293 294 294 295 295 295 296 296 296 299 300 301 302 303 305 308 313 320 319 318 316 317 317 319 319 327 326 324 318 314 313 312 310 311 308 304 303 303 301 302
294 291 293 294 294 294 294 292 292 293 293 293 293 293 294 295 296 297 299 300 300 301 302 304 307 313 313 312 312 312 312 312 313 313 316 320 318 315 312 309 305 307 306 303 299 299 301 300 301
290 289 286 291 293 294 294 289 294 293 292 292 292 291 292 293 294 296 298 299 299 300 301 302 306 307 307 307 308 308 308 308 309 310 312 313 312 311 308 306 304 304 301 296 295 297 296 296 296
288 284 285 290 294 292 291 290 292 292 291 291 290 291 291 291 292 294 297 297 298 299 299 298 299 303 303 303 303 302 303 304 305 307 307 308 305 305 302 300 298 297 294 292 292 292 292 295 294
284 284 285 286 290 290 289 290 292 292 291 292 291 290 290 291 293 293 296 296 297 298 297 297 301 301 301 299 298 297 296 296 297 298 300 301 299 299 297 294 294 293 290 290 289 288 287 289 290
288 286 286 289 292 290 289 290 294 293 290 290 290 290 291 292 293 294 295 295 296 295 295 295 299 299 298 297 297 296 293 294 293 294 294 294 294 293 292 290 289 288 288 286 285 285 287 284 285
288 286 286 289 291 290 290 289 291 291 291 293 294 293 293 292 290 293 293 294 295 297 296 294 299 298 298 299 294 293 293 292 292 292 291 291 291 290 288 286 285 284 284 283 283 283 282 282 281
287 286 286 288 289 288 287 287 288 291 293 294 294 297 296 294 291 291 292 293 293 296 297 297 298 299 298 294 292 290 291 290 289 289 288 289 289 288 287 285 284 283 283 282 281 281 281 279 280
285 290 290 288 286 283 287 283 287 289 290 291 295 296 294 291 292 292 292 292 293 296 299 299 299 299 294 293 292 292 292 288 288 287 287 287 287 286 286 284 283 282 282 282 281 281 280 280 279
288 291 289 287 284 282 281 281 285 288 288 291 296 295 291 291 292 292 292 294 294 295 298 299 299 294 293 293 293 292 290 287 286 286 285 285 285 284 283 283 282 282 282 281 281 280 280 279 279
292 289 287 285 283 279 284 284 289 286 289 291 295 293 291 290 290 292 293 293 293 295 298 297 294 293 293 292 291 290 287 285 284 284 283 283 283 282 282 282 281 281 281 280 280 280 280 280 280
289 287 280 278 276 279 282 281 289 291 292 292 293 292 291 289 289 290 290 292 292 295 297 293 293 291 292 290 289 288 287 286 285 284 283 281 281 280 280 281 281 280 280 281 281 280 280 279 279
286 286 281 274 275 278 282 280 285 290 292 292 291 291 289 287 288 289 290 292 293 295 296 293 292 291 290 289 288 288 287 286 285 284 283 281 281 281 280 280 280 280 280 280 280 279 278 277 277
285 284 289 282 271 274 281 284 289 290 291 293 288 287 287 286 288 289 290 291 293 295 295 293 292 290 289 288 287 286 286 285 283 282 282 281 281 281 280 280 280 279 279 278 278 278 277 276 276
288 290 283 282 273 272 279 280 284 289 291 291 289 288 286 286 287 288 289 289 291 292 294 293 291 288 288 288 287 285 285 284 283 282 281 280 280 280 279 279 279 278 278 277 277 276 276 276 275
286 284 285 287 281 275 273 282 288 290 290 289 290 289 287 286 286 287 288 289 289 289 289 289 289 288 287 287 286 285 284 283 282 281 281 280 280 279 279 278 278 277 277 276 276 275 275 275 274
287 287 289 284 279 280 279 285 289 290 288 289 290 289 286 286 286 286 287 286 285 285 286 287 287 287 287 286 285 284 283 282 281 280 280 280 279 279 278 278 278 277 276 275 275 275 275 274 274
Wind_Speed
5 4 3 6 6 7 1 3 1 2 3 4 3 7 8 4 3 3 4 2 5 7 7 7 11 12 13 12 11 11 11 15 17 16 15 14 15 14 14 14 14 15 14 14 14 14 14 15 16
2 2 5 3 7 4 5 4 5 4 7 6 7 4 6 3 1 1 1 3 8 8 6 6 9 11 12 12 11 10 10 13 15 15 14 14 14 14 14 14 15 14 14 14 13 14 14 15 15
3 4 5 6 4 4 5 4 4 3 8 2 5 5 3 1 1 3 3 7 7 6 6 6 9 10 11 10 10 10 11 12 14 14 13 14 14 14 14 14 14 14 14 14 14 15 15 15 16
3 5 6 6 2 3 5 6 5 6 2 5 4 6 2 1 2 1 4 8 8 8 7 8 9 10 10 10 10 11 11 13 13 15 14 14 14 13 13 13 13 14 15 15 16 16 16 16 17
5 4 5 4 2 2 3 4 6 5 5 3 2 5 1 3 5 6 6 7 8 8 7 7 10 9 8 10 10 10 11 13 13 15 15 14 14 13 13 13 13 14 15 16 16 15 16 18 19
5 4 5 2 3 2 3 3 4 2 2 3 6 6 4 4 4 6 4 4 1 9 9 7 9 9 9 8 10 10 11 12 13 15 14 13 13 13 13 13 13 14 15 16 16 16 17 18 18
7 5 5 4 4 1 4 5 6 6 5 1 10 6 3 2 3 4 6 7 6 6 5 6 5 8 9 7 8 9 10 11 12 14 13 12 12 12 12 12 14 15 15 15 15 16 17 18 19
6 6 4 3 6 5 3 3 3 5 2 4 1 6 5 5 6 7 6 7 8 7 7 5 4 3 6 6 8 8 10 11 12 12 12 11 11 10 9 9 11 14 13 14 15 16 18 18 19
3 6 3 6 7 5 3 3 1 2 7 2 1 4 3 9 7 6 5 4 5 5 6 6 5 4 2 5 5 7 10 11 11 11 11 9 7 7 6 7 10 13 14 15 15 16 16 16 17
6 4 8 5 5 4 4 3 7 5 4 0 1 1 2 6 6 7 6 6 4 3 4 5 4 4 3 2 5 5 5 5 5 7 8 4 6 6 4 8 11 12 13 14 15 15 14 10 5
3 5 4 3 2 3 4 2 3 7 4 8 10 11 6 5 7 8 5 5 5 3 2 2 3 3 3 2 1 3 4 4 4 7 6 5 5 4 4 3 3 4 7 4 6 6 5 6 5
2 1 3 2 2 4 5 2 3 6 6 3 7 8 6 8 9 9 8 7 6 4 2 1 2 2 2 2 1 1 5 5 5 6 8 6 4 4 4 3 3 3 3 5 5 3 5 6 6
1 1 1 1 4 3 3 5 7 7 2 3 8 8 9 8 7 5 5 5 5 4 2 1 2 1 2 2 2 2 3 4 5 7 7 6 5 6 4 4 4 4 3 4 5 5 4 5 6
1 1 3 4 4 3 4 4 4 4 6 6 8 10 9 9 9 5 6 7 6 5 4 1 1 1 3 3 3 3 3 4 4 4 7 8 6 7 5 5 4 4 3 3 4 4 5 5 5
1 3 6 5 3 5 5 8 12 5 8 9 9 8 8 10 9 11 8 8 7 4 4 3 3 3 3 3 4 3 3 4 4 4 6 8 8 7 6 5 4 4 4 6 5 5 6 7 7
3 5 3 4 5 3 6 12 5 7 12 12 10 8 9 10 9 8 8 7 7 5 6 4 3 4 5 4 4 4 5 4 4 4 6 8 8 9 6 6 4 4 4 4 5 5 6 6 7
6 3 4 9 7 3 4 9 2 4 7 9 10 11 10 8 9 8 8 8 7 7 6 5 4 6 6 6 6 6 7 5 4 5 6 7 9 6 7 6 4 5 5 5 4 5 4 7 6
6 4 4 6 3 3 5 14 9 4 9 12 9 9 9 11 18 8 9 7 7 6 6 6 4 7 7 6 6 6 6 5 5 5 6 8 7 8 8 6 6 5 6 6 5 6 6 5 5
4 4 5 4 3 4 9 11 18 9 7 10 11 11 16 19 9 9 8 8 7 6 6 6 8 8 7 6 5 4 4 4 5 5 7 7 8 8 9 6 6 5 6 5 5 4 8 6 4
3 3 7 7 5 6 11 15 12 8 10 13 18 18 20 12 10 12 10 8 9 9 8 7 8 9 7 5 4 3 5 4 5 5 7 7 7 8 8 8 6 5 6 6 5 4 4 4 4
6 7 6 8 5 5 7 11 10 9 11 13 15 21 17 19 17 13 13 13 9 11 11 11 10 10 7 8 8 7 7 6 4 5 5 6 7 9 9 8 7 6 5 6 5 5 7 5 5
6 8 6 5 1 6 2 17 7 8 13 8 21 19 15 11 13 15 17 14 14 11 10 11 11 11 9 11 10 13 8 8 4 4 5 6 7 9 8 9 7 6 5 7 5 4 4 4 5
8 5 6 1 3 4 2 6 0 4 7 14 21 15 10 14 18 20 21 18 13 11 11 11 12 10 11 10 10 8 9 8 7 7 9 8 7 8 7 7 7 8 7 6 8 7 7 4 4
8 6 5 4 1 7 11 9 24 7 9 7 11 6 9 11 13 13 11 12 12 11 13 12 13 11 12 11 9 10 13 14 11 10 9 6 6 6 6 7 7 7 7 7 7 7 8 7 7
3 7 2 5 1 10 3 6 18 9 9 9 11 8 8 8 10 11 15 15 14 15 14 12 14 13 12 12 11 12 12 14 15 14 12 13 8 6 6 8 7 7 7 7 7 8 7 5 6
8 9 8 8 5 6 2 11 9 9 11 10 8 7 3 7 9 13 15 15 16 16 16 15 15 14 13 13 13 12 13 10 10 10 10 9 8 8 6 7 8 8 8 8 7 7 6 5 5
6 7 4 4 2 2 7 9 9 9 13 18 4 3 7 8 9 12 13 14 16 16 17 16 15 13 14 14 13 13 12 13 12 11 7 6 8 8 9 8 9 8 8 8 7 6 6 6 5
7 7 3 1 2 7 6 7 10 8 13 9 6 8 7 7 8 9 12 13 13 13 14 13 14 15 15 13 12 12 12 11 11 10 10 11 9 10 10 10 9 8 7 7 7 6 6 7 4
4 4 3 5 6 5 4 9 9 6 5 9 9 7 8 9 11 12 10 8 11 12 12 14 13 14 13 13 13 13 12 10 10 10 10 10 10 10 10 10 10 9 9 7 7 5 6 7 6
1 8 8 5 6 5 2 20 4 7 4 6 9 5 5 6 8 9 10 10 9 10 10 11 12 14 14 14 14 15 14 14 14 13 12 10 11 9 10 10 10 9 8 7 8 7 6 7 7
Wind_Direction
330 356 75 42 57 64 330 252 275 147 52 334 59 117 135 74 129 209 273 244 157 140 140 137 130 127 129 126 122 118 116 113 111 101 93 84 82 81 77 76 72 68 67 66 68 65 65 55 49
321 92 47 78 86 78 273 265 181 185 154 159 70 68 47 87 120 151 0 145 146 137 133 136 134 132 132 129 128 126 122 115 109 101 92 87 83 79 78 74 71 70 72 73 70 68 60 58 49
144 50 82 91 107 157 185 222 208 147 150 155 100 61 120 113 270 191 242 146 138 135 136 143 141 136 134 132 126 123 126 119 118 107 97 88 82 74 72 71 72 71 71 72 69 67 63 61 48
81 16 36 80 136 218 199 189 188 133 328 52 120 71 2 300 313 295 170 160 146 147 143 152 151 146 139 133 127 128 133 130 127 114 107 101 95 91 85 77 73 71 69 68 65 63 64 59 56
37 57 58 74 305 270 244 187 166 151 144 117 130 172 97 339 324 2 152 163 158 150 151 156 158 152 146 137 129 132 136 136 130 117 114 106 101 94 87 83 80 79 75 73 70 67 64 62 58
46 90 64 165 250 286 292 181 170 107 96 146 80 119 188 342 9 339 73 108 140 156 157 160 163 148 149 144 135 131 133 132 132 125 120 114 108 100 94 87 85 81 77 75 72 70 68 65 64
109 82 171 155 189 238 216 157 168 150 132 167 148 124 271 305 343 73 79 73 61 43 114 141 153 147 145 147 144 145 139 137 135 133 125 117 110 106 99 91 85 79 75 74 72 69 67 64 63
102 91 117 190 186 230 194 140 121 135 162 123 120 176 195 209 142 92 71 72 65 47 58 41 71 127 144 159 162 155 150 143 137 136 126 118 107 99 94 79 86 86 82 79 73 70 67 66 65
118 66 162 182 156 242 177 136 136 77 109 53 338 158 279 135 132 100 88 62 59 46 58 38 56 60 60 200 171 160 154 147 143 127 123 127 127 118 105 93 83 80 74 72 73 74 74 71 69
82 104 205 194 192 224 186 165 174 146 130 131 16 70 99 129 155 148 155 145 124 104 59 45 27 22 11 9 176 162 147 150 144 135 138 126 122 120 99 95 76 68 63 68 70 72 70 66 60
159 166 201 213 199 204 185 226 204 136 229 201 191 183 171 154 166 167 174 169 165 132 84 38 3 3 347 357 28 144 151 147 134 134 127 121 114 111 101 89 85 68 72 64 53 45 42 57 60
98 249 174 181 195 158 181 142 216 189 225 310 197 159 157 167 179 181 184 177 168 168 163 39 357 338 317 283 91 117 162 167 149 147 141 130 112 102 104 86 90 93 97 97 82 70 66 56 60
141 267 267 157 216 248 129 226 219 233 177 73 136 150 170 176 182 193 186 179 169 186 199 337 356 359 229 127 108 97 108 132 139 145 143 139 132 116 113 98 87 86 62 86 90 80 68 65 63
166 216 283 250 229 252 194 246 137 244 147 143 159 184 188 187 186 173 191 191 191 184 196 193 172 200 192 110 105 97 97 98 100 100 152 144 137 126 122 112 92 78 84 82 84 79 70 59 60
83 320 327 249 223 230 165 285 234 168 163 178 199 204 205 211 190 200 190 189 185 193 177 177 153 157 114 95 91 84 82 88 98 100 91 122 125 122 122 100 96 83 73 78 73 67 72 77 74
36 52 347 293 144 270 139 271 266 170 161 205 210 215 215 218 212 210 192 189 183 167 179 167 152 120 92 78 75 74 58 69 81 89 94 102 104 115 107 107 98 90 81 80 83 82 84 77 77
7 238 212 310 200 129 168 264 271 151 192 220 216 217 222 226 230 213 196 185 181 179 166 162 150 129 112 99 88 72 70 61 68 80 94 99 101 90 113 107 96 85 85 72 89 64 76 90 81
208 223 243 242 212 172 220 264 263 202 204 231 232 226 224 222 224 195 185 182 174 172 163 154 145 133 123 107 96 84 77 69 66 70 90 106 101 123 103 94 87 88 91 82 80 97 59 71 86
151 197 241 247 245 177 233 241 258 225 219 235 236 225 225 222 205 177 179 174 167 165 158 165 153 150 141 131 122 104 104 93 77 77 84 91 108 106 106 93 85 71 92 99 100 99 88 46 17
209 240 260 290 234 191 267 258 249 217 225 217 227 227 227 213 183 183 178 175 177 171 171 166 168 160 156 148 115 116 124 88 87 83 71 74 89 96 98 101 91 88 99 80 71 78 106 68 6
223 206 231 227 323 248 300 263 230 246 233 243 241 236 226 210 192 182 182 185 173 180 174 173 171 167 156 131 116 101 96 102 90 84 76 63 83 86 96 92 91 82 84 92 90 91 96 121 29
235 208 201 241 352 257 12 292 199 227 240 237 249 240 231 193 187 184 181 184 186 182 170 169 169 166 151 149 146 154 144 145 120 102 103 91 88 90 90 91 92 90 89 89 83 72 93 115 125
225 137 177 173 201 331 206 285 153 183 249 248 249 246 212 194 186 185 188 185 173 169 170 166 167 161 158 153 155 152 130 110 115 114 108 97 87 84 90 100 105 100 96 91 99 85 74 56 99
147 87 59 58 56 268 189 182 287 169 212 251 262 244 211 198 192 186 176 156 163 167 166 167 163 162 159 155 153 151 143 140 137 136 127 121 119 109 99 107 105 100 101 97 96 90 86 90 84
118 99 317 323 351 249 350 222 254 308 281 235 256 261 228 183 172 164 161 163 162 172 170 164 163 164 161 154 150 149 149 150 149 152 151 148 145 139 141 127 116 112 113 103 98 93 91 85 99
189 158 160 221 214 271 327 242 248 233 265 272 247 261 197 172 173 174 174 168 167 171 171 170 169 166 164 158 153 150 157 156 155 155 153 145 146 144 138 122 121 119 114 110 108 105 101 106 104
194 205 170 86 79 354 224 290 291 268 275 266 258 163 222 186 177 172 172 171 169 174 177 175 170 167 167 163 156 161 162 160 160 150 143 139 136 137 132 131 130 123 117 117 109 108 106 94 90
156 163 93 27 225 258 275 266 238 276 268 304 253 232 211 174 166 169 172 169 172 175 173 173 171 170 167 162 162 162 162 158 149 146 149 152 148 143 141 134 130 125 118 116 111 109 115 117 110
144 177 179 138 154 192 300 257 215 231 265 286 292 236 205 187 181 171 175 177 172 169 172 171 168 166 165 163 161 159 158 150 150 152 154 154 145 145 144 142 138 137 134 129 118 117 127 119 117
91 190 168 161 223 241 152 263 180 228 270 287 292 275 191 187 178 166 166 156 159 169 170 175 172 170 172 166 162 164 160 159 161 161 159 153 150 152 150 144 140 143 143 135 134 143 146 138 133